Location: Unspecified
(41.1850°N, 73.2650°W)
Time: 20:41:03
(UTC+00:00)

Meteor 1-28 Rocket - Pass Details

Date: 14 December 2025
Orbit: 429 x 441 km, 97.6° (Epoch: 12 January)

Event Time Altitude Azimuth Distance (km) Brightness Sun altitude
Rises 22:02:17 0° 7° (N) 2,436 6.3 -7.1°
Reaches altitude 10° 22:04:20 10° 3° (N) 1,559 5.4 -7.4°
Maximum altitude 22:07:36 55° 285° (WNW) 533 3.6 -8.0°
Drops below altitude 10° 22:10:50 10° 207° (SSW) 1,537 6.4 -8.5°
Sets 22:12:51 0° 203° (SSW) 2,397 7.4 -8.9°
